Погода в Алхан-Кале

Россия / Чеченская Республика     43°15′44″N   45°32′05″E
темп.,
°C
ветер,
м/с
пор.,
м/с
влажн.,
%
обл.,
%
осадки,
мм/ч
давл.,
гПа
погр.,
м
12 апреля, пн
пн1200:00+10зсз22736 0.0 101638
03:00+9з2373100 0.0 101686
06:00+9з2477100 0.0 1018109
09:00+15зсз4556100 0.0 1019918
12:00+17сз3350100 0.0 10181599
15:00+16сз3357100 0.1 1019863
18:00+13сз3570100 0.0 1021287
21:00+12зсз2478100 0.0 1022283
13 апреля, вт
вт1300:00+11зсз2378100 0.0 1022287
03:00+10зсз1280100 0.1 1022190
06:00+10зсз128099 0.0 1022174
09:00+12сз227187 0.0 1022570
12:00+15св2260100 0.0 10201302
15:00+15с116198 0.1 1020889
18:00+14з2267100 0.0 1019107
21:00+13зсз2475100 0.1 1019139
14 апреля, ср
ср1400:00+12з2383100 0.1 1016172
03:00+12зсз3587100 0.1 1015304
06:00+11зюз2587100 0.2 1015221
09:00+14зсз2274100 0.4 1016530
12:00+14ссз2374100 1.1 1015635
15:00+15с1164100 1.9 1016832
18:00+14з2272100 1.6 101654
21:00+11з388582 3.1 1018315
15 апреля, чт
чт1500:00+11зюз1282100 0.0 101782
03:00+11зюз0079100 0.0 101712
06:00+11з1179100 0.0 101733
09:00+14сз1264100 0.0 1016443
12:00+18с224753 0.0 10151215
15:00+20с33383 0.0 10131844
18:00+18с22450 0.0 1014154
21:00+14ю115388 0.0 101412
16 апреля, пт
пт1600:00+12юз116122 0.0 101311
03:00+11зюз11685 0.0 101310
06:00+11з22696 0.0 101429
09:00+18сз334758 0.0 1015714
12:00+20ссз4340100 0.0 10142057
15:00+19з2347100 0.0 10141149
18:00+13зсз3791100 5.6 1017439
21:00+11сз2390100 7.9 1018257